Location: Unspecified
(0.0000°N, 0.0000°E)
Time: 21:52:55
(UTC+00:00)

STARLINK-32176 - Visible Passes

Search period start: 20 June 2025 00:00
Search period end: 30 June 2025 00:00
Orbit: 474 x 476 km, 53.2° (Epoch: 20 June)

Date Brightness Start Highest point End Pass type
(mag) Time Alt. Az. Time Alt. Az. Time Alt. Az.
21 Jun 5.4 19:31:06 10° SSW 19:32:05 17° SSW 19:32:05 17° SSW visible
22 Jun 3.6 19:01:44 10° SSW 19:05:15 42° SE 19:08:45 10° NE visible
23 Jun 4.0 18:32:25 10° S 18:35:47 33° SE 18:39:08 10° ENE visible
24 Jun 6.8 19:42:37 10° WNW 19:44:01 12° NW 19:45:24 10° NNW visible
25 Jun 6.6 19:12:24 10° W 19:14:32 15° NW 19:16:39 10° NNW visible
26 Jun 6.5 05:19:23 10° N 05:22:03 19° NE 05:24:43 10° ESE visible
26 Jun 6.5 18:42:27 10° W 18:45:03 18° NW 18:47:40 10° N visible
27 Jun 6.6 04:50:22 10° NNE 04:52:35 15° NE 04:54:47 10° E visible
28 Jun 6.8 04:21:35 10° NNE 04:23:06 12° NE 04:24:37 10° E visible
29 Jun 4.0 05:28:01 10° WNW 05:31:20 32° SW 05:34:40 10° S visible
